AIB67 LFPG-EGPH

Flight info

Callsign AIB67
Flight time 1h 20m
Altitude 40000
Route ATREX DCT VESAN DCT RATUK DCT SOVAT L613 LEHOC DCT INPIP
Aircraft A35K/H-SDE2E3GHIJ3J4J5LM1ORWXY/LB1D1

Departure

Time 2026-04-21 12:07
Airport Charles de Gaulle International Airport (LFPG)

Arrival

Time 2026-04-21 13:27
Airport Edinburgh Airport (EGPH)
Time Latitude Longitude Altitude Speed Heading
2026-04-21 11:49 49.00178 2.56054 359 ft 0 kts
2026-04-21 11:58 49.00167 2.56052 365 ft 2 kts
2026-04-21 11:58 49.00151 2.56051 362 ft 2 kts 359°
2026-04-21 11:58 49.00134 2.56053 364 ft 2 kts 352°
2026-04-21 11:59 49.00118 2.56058 366 ft 2 kts 340°
2026-04-21 11:59 49.00103 2.56070 363 ft 2 kts 320°
2026-04-21 11:59 49.00093 2.56089 366 ft 2 kts 292°
2026-04-21 11:59 49.00089 2.56112 366 ft 2 kts 272°
2026-04-21 12:00 49.00089 2.56120 366 ft 0 kts 268°
2026-04-21 12:00 49.00089 2.56112 366 ft 2 kts 269°
2026-04-21 12:00 49.00088 2.56111 366 ft 0 kts 269°
2026-04-21 12:02 49.00088 2.56096 366 ft 5 kts 269°
2026-04-21 12:02 49.00079 2.55907 359 ft 12 kts 266°
2026-04-21 12:02 49.00075 2.55768 366 ft 12 kts 268°
2026-04-21 12:03 49.00054 2.55631 366 ft 10 kts 245°
2026-04-21 12:03 49.00037 2.55589 364 ft 8 kts 236°
2026-04-21 12:03 48.99988 2.55541 367 ft 10 kts 186°
2026-04-21 12:03 48.99961 2.55545 365 ft 2 kts 171°
2026-04-21 12:04 48.99960 2.55545 365 ft 0 kts 172°
2026-04-21 12:04 48.99949 2.55548 365 ft 4 kts 168°
2026-04-21 12:04 48.99906 2.55582 367 ft 10 kts 146°
2026-04-21 12:04 48.99855 2.55669 368 ft 12 kts 120°
2026-04-21 12:05 48.99815 2.55775 366 ft 12 kts 140°
2026-04-21 12:05 48.99732 2.55808 364 ft 13 kts 174°
2026-04-21 12:05 48.99639 2.55827 364 ft 13 kts 162°
2026-04-21 12:05 48.99604 2.55940 365 ft 12 kts 87°
2026-04-21 12:06 48.99606 2.55965 361 ft 1 kts 84°
2026-04-21 12:06 48.99617 2.56165 366 ft 51 kts 85°
2026-04-21 12:06 48.99667 2.57080 359 ft 121 kts 85°
2026-04-21 12:06 48.99743 2.58656 470 ft 169 kts 82°
2026-04-21 12:07 48.99831 2.60450 1382 ft 167 kts 83°
2026-04-21 12:07 48.99935 2.62279 2134 ft 183 kts 82°
2026-04-21 12:07 49.00066 2.64337 2434 ft 209 kts 82°
2026-04-21 12:07 49.00206 2.66676 2922 ft 231 kts 83°
2026-04-21 12:08 49.00333 2.69154 3701 ft 237 kts 84°
2026-04-21 12:08 49.00455 2.71674 4549 ft 240 kts 84°
2026-04-21 12:08 49.00589 2.74222 5426 ft 244 kts 83°
2026-04-21 12:08 49.00841 2.76783 6248 ft 248 kts 74°
2026-04-21 12:09 49.01552 2.79183 7050 ft 251 kts 55°
2026-04-21 12:09 49.02842 2.80994 7839 ft 257 kts 31°
2026-04-21 12:09 49.04578 2.81726 8612 ft 265 kts
2026-04-21 12:09 49.06328 2.81169 9424 ft 270 kts 342°
2026-04-21 12:10 49.08081 2.80089 10253 ft 272 kts 339°
2026-04-21 12:10 49.09846 2.78945 10721 ft 287 kts 339°
2026-04-21 12:10 49.11744 2.77738 11030 ft 305 kts 339°
2026-04-21 12:10 49.13767 2.76472 11347 ft 322 kts 339°
2026-04-21 12:11 49.15899 2.75166 11698 ft 337 kts 339°
2026-04-21 12:11 49.18101 2.73828 12257 ft 343 kts 339°
2026-04-21 12:11 49.20328 2.72483 12930 ft 346 kts 339°
2026-04-21 12:11 49.22581 2.71120 13589 ft 349 kts 339°
2026-04-21 12:12 49.24853 2.69746 14197 ft 353 kts 339°
2026-04-21 12:12 49.27149 2.68355 14787 ft 355 kts 339°
2026-04-21 12:12 49.29449 2.66959 15383 ft 358 kts 338°
2026-04-21 12:12 49.31773 2.65549 15998 ft 360 kts 338°
2026-04-21 12:13 49.34108 2.64131 16587 ft 363 kts 338°
2026-04-21 12:13 49.36464 2.62697 17175 ft 365 kts 338°
2026-04-21 12:13 49.38839 2.61252 17739 ft 368 kts 338°
2026-04-21 12:13 49.41231 2.59794 18349 ft 371 kts 338°
2026-04-21 12:14 49.43637 2.58327 18869 ft 373 kts 338°
2026-04-21 12:14 49.46050 2.56854 19462 ft 372 kts 337°
2026-04-21 12:14 49.48422 2.55405 20064 ft 371 kts 337°
2026-04-21 12:14 49.50852 2.53920 20635 ft 371 kts 336°
2026-04-21 12:15 49.53216 2.52471 21210 ft 371 kts 336°
2026-04-21 12:15 49.55612 2.51001 21764 ft 370 kts 336°
2026-04-21 12:15 49.58004 2.49533 22318 ft 371 kts 335°
2026-04-21 12:15 49.60402 2.48058 22845 ft 371 kts 335°
2026-04-21 12:16 49.62805 2.46580 23382 ft 371 kts 335°
2026-04-21 12:16 49.65203 2.45103 23878 ft 371 kts 334°
2026-04-21 12:16 49.67604 2.43622 24241 ft 373 kts 334°
2026-04-21 12:16 49.70025 2.42127 24589 ft 376 kts 334°
2026-04-21 12:17 49.72462 2.40621 24948 ft 378 kts 334°
2026-04-21 12:17 49.74908 2.39109 25333 ft 380 kts 334°
2026-04-21 12:17 49.77368 2.37586 25725 ft 381 kts 334°
2026-04-21 12:17 49.79836 2.36064 26129 ft 383 kts 335°
2026-04-21 12:18 49.82335 2.34585 26548 ft 386 kts 335°
2026-04-21 12:18 49.84859 2.33136 26976 ft 388 kts 335°
2026-04-21 12:18 49.87399 2.31693 27411 ft 390 kts 336°
2026-04-21 12:18 49.89956 2.30238 27879 ft 392 kts 335°
2026-04-21 12:19 49.92519 2.28772 28356 ft 394 kts 335°
2026-04-21 12:19 49.95098 2.27287 28835 ft 396 kts 335°
2026-04-21 12:19 49.97685 2.25791 29313 ft 398 kts 335°
2026-04-21 12:19 50.00288 2.24279 29794 ft 400 kts 335°
2026-04-21 12:20 50.02867 2.22779 30297 ft 402 kts 335°
2026-04-21 12:20 50.05498 2.21245 30687 ft 405 kts 335°
2026-04-21 12:20 50.08149 2.19697 31007 ft 410 kts 335°
2026-04-21 12:20 50.10831 2.18129 31324 ft 414 kts 335°
2026-04-21 12:21 50.13539 2.16546 31651 ft 417 kts 335°
2026-04-21 12:21 50.16270 2.14947 31965 ft 421 kts 335°
2026-04-21 12:21 50.19027 2.13332 32274 ft 425 kts 336°
2026-04-21 12:21 50.21806 2.11702 32590 ft 428 kts 336°
2026-04-21 12:22 50.24603 2.10059 32885 ft 431 kts 336°
2026-04-21 12:22 50.27424 2.08401 33184 ft 435 kts 336°
2026-04-21 12:22 50.30265 2.06730 33570 ft 436 kts 336°
2026-04-21 12:22 50.33091 2.05057 33974 ft 436 kts 335°
2026-04-21 12:23 50.35850 2.03084 34333 ft 435 kts 330°
2026-04-21 12:23 50.38437 2.00625 34608 ft 435 kts 323°
2026-04-21 12:23 50.40839 1.97720 34875 ft 437 kts 320°
2026-04-21 12:23 50.43174 1.94662 35164 ft 439 kts 319°
2026-04-21 12:24 50.45483 1.91525 35437 ft 441 kts 318°
2026-04-21 12:24 50.47791 1.88341 35724 ft 442 kts 318°
2026-04-21 12:24 50.50103 1.85138 36004 ft 444 kts 318°
2026-04-21 12:24 50.52431 1.81917 36219 ft 447 kts 318°
2026-04-21 12:25 50.54768 1.78692 36268 ft 447 kts 318°
2026-04-21 12:25 50.59453 1.72247 36266 ft 447 kts 318°
2026-04-21 12:26 50.64143 1.65793 36265 ft 448 kts 318°
2026-04-21 12:26 50.68834 1.59329 36265 ft 448 kts 318°
2026-04-21 12:27 50.73519 1.52835 36269 ft 448 kts 318°
2026-04-21 12:27 50.78195 1.46330 36275 ft 449 kts 318°
2026-04-21 12:28 50.82096 1.40907 36285 ft 449 kts 318°
2026-04-21 12:28 50.86782 1.34366 36289 ft 449 kts 318°
2026-04-21 12:29 50.91967 1.27108 36292 ft 449 kts 318°
2026-04-21 12:29 50.96652 1.20531 36292 ft 450 kts 318°
2026-04-21 12:30 51.00571 1.15018 36293 ft 450 kts 318°
2026-04-21 12:30 51.05261 1.08426 36293 ft 450 kts 319°
2026-04-21 12:31 51.11119 1.01545 36298 ft 451 kts 324°
2026-04-21 12:31 51.15398 0.96790 36299 ft 451 kts 324°
2026-04-21 12:32 51.20569 0.91084 36303 ft 452 kts 324°
2026-04-21 12:32 51.25735 0.85358 36403 ft 452 kts 324°
2026-04-21 12:33 51.30905 0.79596 36420 ft 453 kts 324°
2026-04-21 12:33 51.36067 0.73821 36336 ft 453 kts 324°
2026-04-21 12:34 51.41235 0.68023 36341 ft 453 kts 324°
2026-04-21 12:34 51.46398 0.62215 36344 ft 454 kts 324°
2026-04-21 12:35 51.51560 0.56392 36345 ft 454 kts 324°
2026-04-21 12:35 51.56721 0.50554 36344 ft 454 kts 324°
2026-04-21 12:36 51.61891 0.44688 36341 ft 455 kts 324°
2026-04-21 12:36 51.67061 0.38807 36338 ft 455 kts 324°
2026-04-21 12:37 51.72228 0.32912 36342 ft 455 kts 323°
2026-04-21 12:37 51.77405 0.26988 36513 ft 458 kts 323°
2026-04-21 12:37 51.80005 0.24006 36836 ft 459 kts 324°
2026-04-21 12:38 51.82609 0.21015 37124 ft 460 kts 324°
2026-04-21 12:38 51.85218 0.18014 37395 ft 462 kts 324°
2026-04-21 12:38 51.87813 0.15026 37676 ft 464 kts 324°
2026-04-21 12:38 51.90442 0.11994 37948 ft 465 kts 324°
2026-04-21 12:39 51.93082 0.08944 38224 ft 467 kts 324°
2026-04-21 12:39 51.95721 0.05891 38505 ft 468 kts 324°
2026-04-21 12:39 51.98373 0.02820 38808 ft 468 kts 324°
2026-04-21 12:39 52.01025 -0.00246 39087 ft 469 kts 325°
2026-04-21 12:40 52.03782 -0.03020 39297 ft 470 kts 329°
2026-04-21 12:40 52.06652 -0.05649 39524 ft 470 kts 330°
2026-04-21 12:40 52.09521 -0.08201 39754 ft 470 kts 331°
2026-04-21 12:40 52.12402 -0.10724 39958 ft 471 kts 331°
2026-04-21 12:41 52.15286 -0.13236 40170 ft 471 kts 331°
2026-04-21 12:41 52.18178 -0.15757 40318 ft 472 kts 331°
2026-04-21 12:41 52.21081 -0.18295 40342 ft 472 kts 331°
2026-04-21 12:42 52.26859 -0.23375 40346 ft 472 kts 331°
2026-04-21 12:42 52.32641 -0.28483 40344 ft 472 kts 331°
2026-04-21 12:43 52.38407 -0.33597 40358 ft 473 kts 331°
2026-04-21 12:43 52.44192 -0.38750 40366 ft 473 kts 331°
2026-04-21 12:44 52.49971 -0.43910 40369 ft 473 kts 331°
2026-04-21 12:44 52.55745 -0.49079 40373 ft 472 kts 331°
2026-04-21 12:45 52.61480 -0.54227 40375 ft 472 kts 331°
2026-04-21 12:45 52.67239 -0.59412 40374 ft 472 kts 331°
2026-04-21 12:46 52.72995 -0.64613 40375 ft 472 kts 331°
2026-04-21 12:46 52.78734 -0.69813 40392 ft 472 kts 331°
2026-04-21 12:47 52.84516 -0.75067 40396 ft 473 kts 331°
2026-04-21 12:47 52.90280 -0.80322 40399 ft 473 kts 331°
2026-04-21 12:48 52.96053 -0.85601 40400 ft 473 kts 331°
2026-04-21 12:48 53.01804 -0.90876 40400 ft 474 kts 331°
2026-04-21 12:49 53.07593 -0.96198 40399 ft 474 kts 331°
2026-04-21 12:49 53.13366 -1.01521 40402 ft 475 kts 331°
2026-04-21 12:50 53.19148 -1.06869 40405 ft 475 kts 331°
2026-04-21 12:50 53.24923 -1.12227 40411 ft 475 kts 331°
2026-04-21 12:51 53.30699 -1.17604 40410 ft 475 kts 331°
2026-04-21 12:51 53.36478 -1.22999 40416 ft 476 kts 331°
2026-04-21 12:52 53.42231 -1.28389 40419 ft 477 kts 330°
2026-04-21 12:52 53.48020 -1.33828 40424 ft 477 kts 330°
2026-04-21 12:53 53.53806 -1.39298 40428 ft 477 kts 330°
2026-04-21 12:53 53.59591 -1.44784 40431 ft 478 kts 330°
2026-04-21 12:54 53.65386 -1.50291 40431 ft 479 kts 330°
2026-04-21 12:54 53.71180 -1.55834 40431 ft 479 kts 329°
2026-04-21 12:55 53.76499 -1.62630 40429 ft 480 kts 320°
2026-04-21 12:55 53.81482 -1.70142 40427 ft 480 kts 318°
2026-04-21 12:56 53.86399 -1.77775 40426 ft 481 kts 318°
2026-04-21 12:56 53.91340 -1.85461 40431 ft 481 kts 318°
2026-04-21 12:57 53.96280 -1.93135 40436 ft 482 kts 318°
2026-04-21 12:57 54.01279 -2.00725 40437 ft 481 kts 323°
2026-04-21 12:58 54.06910 -2.06864 40448 ft 481 kts 329°
2026-04-21 12:58 54.12652 -2.12646 40455 ft 482 kts 330°
2026-04-21 12:59 54.18428 -2.18456 40453 ft 482 kts 329°
2026-04-21 12:59 54.24214 -2.24294 40456 ft 483 kts 329°
2026-04-21 13:00 54.30002 -2.30154 40457 ft 483 kts 329°
2026-04-21 13:00 54.32871 -2.33064 40258 ft 473 kts 329°
2026-04-21 13:00 54.35668 -2.35909 39492 ft 463 kts 329°
2026-04-21 13:00 54.38440 -2.38728 38076 ft 465 kts 329°
2026-04-21 13:01 54.41231 -2.41554 36622 ft 466 kts 329°
2026-04-21 13:01 54.44012 -2.44377 35322 ft 463 kts 328°
2026-04-21 13:01 54.46777 -2.47198 33908 ft 460 kts 327°
2026-04-21 13:01 54.49524 -2.50029 32054 ft 463 kts 327°
2026-04-21 13:02 54.52335 -2.52947 30179 ft 484 kts 328°
2026-04-21 13:02 54.55248 -2.55958 29134 ft 488 kts 329°
2026-04-21 13:02 54.60954 -2.61837 28561 ft 478 kts 329°
2026-04-21 13:03 54.63800 -2.64774 28290 ft 479 kts 329°
2026-04-21 13:03 54.66667 -2.67738 27982 ft 478 kts 329°
2026-04-21 13:03 54.69524 -2.70700 27675 ft 467 kts 329°
2026-04-21 13:03 54.72270 -2.73553 27553 ft 453 kts 330°
2026-04-21 13:04 54.74875 -2.76266 27438 ft 433 kts 330°
2026-04-21 13:04 54.77397 -2.78897 27279 ft 414 kts 330°
2026-04-21 13:04 54.79812 -2.81421 27102 ft 398 kts 330°
2026-04-21 13:04 54.82134 -2.83854 26914 ft 382 kts 330°
2026-04-21 13:05 54.84365 -2.86198 26752 ft 368 kts 330°
2026-04-21 13:05 54.86522 -2.88461 26586 ft 356 kts 331°
2026-04-21 13:05 54.88714 -2.90409 26427 ft 360 kts 338°
2026-04-21 13:05 54.90852 -2.91996 26358 ft 368 kts 339°
2026-04-21 13:06 54.93221 -2.93705 25828 ft 371 kts 340°
2026-04-21 13:06 54.95622 -2.95428 25274 ft 375 kts 340°
2026-04-21 13:06 54.98039 -2.97153 24831 ft 375 kts 340°
2026-04-21 13:06 55.00448 -2.98891 24458 ft 374 kts 340°
2026-04-21 13:07 55.02817 -3.00617 23860 ft 366 kts 340°
2026-04-21 13:07 55.05160 -3.02333 22879 ft 364 kts 340°
2026-04-21 13:07 55.07480 -3.04024 22134 ft 357 kts 340°
2026-04-21 13:07 55.09755 -3.05676 21596 ft 352 kts 341°
2026-04-21 13:08 55.11252 -3.06761 21269 ft 352 kts 341°
2026-04-21 13:08 55.14265 -3.08948 20634 ft 349 kts 341°
2026-04-21 13:08 55.16499 -3.10574 20100 ft 346 kts 341°
2026-04-21 13:08 55.18715 -3.12196 19565 ft 344 kts 341°
2026-04-21 13:09 55.20916 -3.13813 19063 ft 345 kts 341°
2026-04-21 13:09 55.23130 -3.15438 18652 ft 344 kts 341°
2026-04-21 13:09 55.25307 -3.17040 18211 ft 343 kts 341°
2026-04-21 13:09 55.27527 -3.18675 17806 ft 341 kts 341°
2026-04-21 13:10 55.29733 -3.20005 17324 ft 327 kts 353°
2026-04-21 13:10 55.31959 -3.20220 16520 ft 317 kts
2026-04-21 13:10 55.34154 -3.19915 15821 ft 318 kts
2026-04-21 13:10 55.36325 -3.19534 15405 ft 318 kts 10°
2026-04-21 13:11 55.38507 -3.19155 14948 ft 311 kts
2026-04-21 13:11 55.40652 -3.18807 14479 ft 311 kts
2026-04-21 13:11 55.42812 -3.18457 14031 ft 312 kts
2026-04-21 13:11 55.44945 -3.18107 13470 ft 303 kts
2026-04-21 13:12 55.47052 -3.17769 13012 ft 306 kts
2026-04-21 13:12 55.49176 -3.17426 12590 ft 305 kts 10°
2026-04-21 13:12 55.51279 -3.17076 12068 ft 300 kts 10°
2026-04-21 13:12 55.53338 -3.16738 11566 ft 297 kts 10°
2026-04-21 13:13 55.55359 -3.16416 11176 ft 285 kts
2026-04-21 13:13 55.57303 -3.16118 10677 ft 275 kts 10°
2026-04-21 13:13 55.59185 -3.15824 10239 ft 269 kts
2026-04-21 13:13 55.61045 -3.15536 9804 ft 268 kts
2026-04-21 13:14 55.62885 -3.15237 9409 ft 266 kts 10°
2026-04-21 13:14 55.64722 -3.14942 8981 ft 263 kts 10°
2026-04-21 13:14 55.66544 -3.14658 8573 ft 261 kts
2026-04-21 13:14 55.68345 -3.14385 8203 ft 260 kts
2026-04-21 13:15 55.70174 -3.14569 8035 ft 268 kts 349°
2026-04-21 13:15 55.71780 -3.16178 7559 ft 269 kts 315°
2026-04-21 13:15 55.72649 -3.18983 7399 ft 253 kts 289°
2026-04-21 13:15 55.73129 -3.21935 7284 ft 251 kts 285°
2026-04-21 13:16 55.73572 -3.24949 7170 ft 252 kts 285°
2026-04-21 13:16 55.74014 -3.27958 7048 ft 251 kts 285°
2026-04-21 13:16 55.74457 -3.30931 6851 ft 247 kts 285°
2026-04-21 13:16 55.74903 -3.33888 6320 ft 247 kts 285°
2026-04-21 13:17 55.75205 -3.35861 6219 ft 251 kts 285°
2026-04-21 13:17 55.75818 -3.39830 6037 ft 247 kts 285°
2026-04-21 13:17 55.76273 -3.42768 5931 ft 245 kts 285°
2026-04-21 13:17 55.76707 -3.45578 5823 ft 230 kts 286°
2026-04-21 13:18 55.76985 -3.47383 5760 ft 229 kts 286°
2026-04-21 13:18 55.77411 -3.50098 5658 ft 228 kts 287°
2026-04-21 13:18 55.77842 -3.52821 5558 ft 228 kts 287°
2026-04-21 13:18 55.78270 -3.55533 5457 ft 228 kts 286°
2026-04-21 13:19 55.78694 -3.58240 5337 ft 227 kts 286°
2026-04-21 13:19 55.79116 -3.60950 5235 ft 228 kts 286°
2026-04-21 13:19 55.79535 -3.63653 5114 ft 224 kts 286°
2026-04-21 13:19 55.79937 -3.66264 5007 ft 214 kts 286°
2026-04-21 13:20 55.80324 -3.68760 4832 ft 206 kts 286°
2026-04-21 13:20 55.80939 -3.70972 4543 ft 197 kts 317°
2026-04-21 13:20 55.82086 -3.71910 4372 ft 171 kts
2026-04-21 13:20 55.83089 -3.71238 4175 ft 148 kts 42°
2026-04-21 13:21 55.83792 -3.69959 4020 ft 143 kts 57°
2026-04-21 13:21 55.84351 -3.68499 3984 ft 142 kts 61°
2026-04-21 13:21 55.84881 -3.67025 3941 ft 141 kts 61°
2026-04-21 13:21 55.85382 -3.65590 3790 ft 132 kts 63°
2026-04-21 13:22 55.85851 -3.64204 3600 ft 130 kts 63°
2026-04-21 13:22 55.86313 -3.62852 3410 ft 129 kts 62°
2026-04-21 13:22 55.86766 -3.61530 3222 ft 123 kts 63°
2026-04-21 13:22 55.87203 -3.60240 3049 ft 121 kts 63°
2026-04-21 13:23 55.87639 -3.58955 2893 ft 121 kts 63°
2026-04-21 13:23 55.88076 -3.57668 2705 ft 120 kts 62°
2026-04-21 13:23 55.88510 -3.56396 2541 ft 120 kts 62°
2026-04-21 13:23 55.88944 -3.55117 2387 ft 120 kts 62°
2026-04-21 13:24 55.89374 -3.53847 2211 ft 119 kts 62°
2026-04-21 13:24 55.89804 -3.52582 2037 ft 119 kts 62°
2026-04-21 13:24 55.90229 -3.51328 1876 ft 118 kts 62°
2026-04-21 13:24 55.90651 -3.50082 1714 ft 117 kts 62°
2026-04-21 13:25 55.91074 -3.48837 1538 ft 118 kts 61°
2026-04-21 13:25 55.91502 -3.47582 1393 ft 121 kts 62°
2026-04-21 13:25 55.91936 -3.46308 1221 ft 118 kts 62°
2026-04-21 13:25 55.92370 -3.45060 1033 ft 117 kts 62°
2026-04-21 13:26 55.92786 -3.43817 847 ft 115 kts 61°
2026-04-21 13:26 55.93194 -3.42568 704 ft 118 kts 61°
2026-04-21 13:26 55.93607 -3.41307 509 ft 117 kts 59°
2026-04-21 13:26 55.94044 -3.40074 311 ft 118 kts 60°
2026-04-21 13:27 55.94459 -3.38840 163 ft 115 kts 59°
2026-04-21 13:27 55.94851 -3.37682 120 ft 95 kts 59°
2026-04-21 13:27 55.95136 -3.36841 115 ft 53 kts 58°
2026-04-21 13:27 55.95190 -3.36685 117 ft 10 kts 59°
2026-04-21 13:28 55.95241 -3.36533 112 ft 10 kts 60°
2026-04-21 13:28 55.95229 -3.36400 110 ft 14 kts 131°
2026-04-21 13:28 55.95216 -3.36381 110 ft 7 kts 143°
2026-04-21 13:28 55.95191 -3.36352 112 ft 1 kts 147°
2026-04-21 13:29 55.95190 -3.36350 112 ft 0 kts 147°
2026-04-21 13:30 55.95186 -3.36347 113 ft 2 kts 148°
2026-04-21 13:31 55.95165 -3.36313 114 ft 6 kts 132°
2026-04-21 13:31 55.95136 -3.36223 111 ft 11 kts 112°
2026-04-21 13:31 55.95108 -3.36080 112 ft 13 kts 108°
2026-04-21 13:31 55.95077 -3.35941 112 ft 9 kts 117°
2026-04-21 13:32 55.95023 -3.35857 110 ft 11 kts 175°
2026-04-21 13:32 55.95006 -3.35858 111 ft 3 kts 182°
2026-04-21 13:32 55.94990 -3.35880 110 ft 3 kts 232°
2026-04-21 13:32 55.94973 -3.35931 112 ft 6 kts 243°
2026-04-21 13:33 55.94959 -3.35998 111 ft 0 kts 254°
2026-04-21 13:33 55.94957 -3.36006 111 ft 0 kts 254°